Location: Antoign�
(47.0844°N, 0.1131°W)
Time: 03:31:11
(UTC+00:00)

ATLAS CENTAUR R/B - Pass Details

Date: 03 March 2021
Orbit: 475 x 670 km, 64.7° (Epoch: 30 March)

Event Time Altitude Azimuth Distance (km) Brightness Sun altitude
Rises 19:56:24 0° 234° (SW) 2,519 5.3 -22.3°
Reaches altitude 10° 19:58:37 10° 242° (WSW) 1,641 4.3 -22.7°
Maximum altitude 20:02:03 40° 314° (NW) 713 2.3 -23.2°
Enters shadow 20:03:16 30° 359° (N) 882 2.5 -23.4°
